Location: Pardubice
(50.0618°N, 15.7556°E)
Time: 20:02:40
(UTC+02:00)

ISS - Pass Details

Date: 27 May 2018
Orbit: 402 x 406 km, 51.6° (Epoch: 22 June)

Event Time Altitude Azimuth Distance (km) Brightness Sun altitude
Rises 00:18:10 0° 286° (WNW) 2,323 0.4 -18.3°
Reaches altitude 10° 00:20:15 10° 285° (WNW) 1,461 -0.7 -18.3°
Maximum altitude 00:23:32 86° 200° (SSW) 409 -4.0 -18.4°
Enters shadow 00:24:06 58° 114° (ESE) 477 -3.7 -18.4°
